Time,TemperatureF,DewpointF,PressureIn,WindDirection,WindDirectionDegrees,WindSpeedMPH,WindSpeedGustMPH,Humidity,HourlyPrecipIn,Conditions,Clouds,dailyrainin,SoftwareType,DateUTC
2013-03-02 00:03:00,46.7,44.0,30.25,SSW,207,0.0,-999.0,90,-99.99,,,0.00,weatherlink.com 1.10,2013-03-02 08:03:00,
2013-03-02 00:18:00,46.9,45.0,30.25,SSW,207,0.0,-999.0,91,-99.99,,,0.00,weatherlink.com 1.10,2013-03-02 08:18:00,
2013-03-02 00:33:00,46.9,44.0,30.25,SSW,207,0.0,-999.0,90,-99.99,,,0.00,weatherlink.com 1.10,2013-03-02 08:33:00,
2013-03-02 00:48:00,46.0,43.0,30.24,SSW,207,0.0,-999.0,90,-99.99,,,0.00,weatherlink.com 1.10,2013-03-02 08:48:00,
2013-03-02 01:03:00,45.4,43.0,30.23,SSW,207,0.0,-999.0,90,-99.99,,,0.00,weatherlink.com 1.10,2013-03-02 09:03:00,
2013-03-02 01:18:00,45.2,43.0,30.23,SSW,207,0.0,-999.0,91,-99.99,,,0.00,weatherlink.com 1.10,2013-03-02 09:18:00,
2013-03-02 01:33:00,44.9,43.0,30.23,SSW,207,0.0,-999.0,91,-99.99,,,0.00,weatherlink.com 1.10,2013-03-02 09:33:00,
2013-03-02 01:48:00,44.9,43.0,30.23,SSW,207,0.0,-999.0,91,-99.99,,,0.00,weatherlink.com 1.10,2013-03-02 09:48:00,
2013-03-02 02:03:00,44.9,43.0,30.23,SSW,207,0.0,-999.0,91,-99.99,,,0.00,weatherlink.com 1.10,2013-03-02 10:03:00,
2013-03-02 02:18:00,44.8,42.0,30.22,SSW,207,0.0,-999.0,91,-99.99,,,0.00,weatherlink.com 1.10,2013-03-02 10:18:00,
2013-03-02 02:33:00,44.8,42.0,30.21,SSW,207,0.0,-999.0,91,-99.99,,,0.00,weatherlink.com 1.10,2013-03-02 10:33:00,
2013-03-02 02:48:00,44.9,43.0,30.21,SSW,207,0.0,-999.0,91,-99.99,,,0.00,weatherlink.com 1.10,2013-03-02 10:48:00,
2013-03-02 03:03:00,44.9,43.0,30.20,SSW,207,0.0,-999.0,91,-99.99,,,0.00,weatherlink.com 1.10,2013-03-02 11:03:00,
2013-03-02 03:18:00,44.4,42.0,30.20,SSW,207,0.0,-999.0,91,-99.99,,,0.00,weatherlink.com 1.10,2013-03-02 11:18:00,
2013-03-02 03:33:00,44.3,42.0,30.20,SSW,207,0.0,-999.0,92,-99.99,,,0.00,weatherlink.com 1.10,2013-03-02 11:33:00,
2013-03-02 03:48:00,44.2,42.0,30.19,SSW,207,0.0,-999.0,92,-99.99,,,0.00,weatherlink.com 1.10,2013-03-02 11:48:00,
2013-03-02 04:03:00,44.0,42.0,30.19,SSW,207,0.0,-999.0,91,-99.99,,,0.00,weatherlink.com 1.10,2013-03-02 12:03:00,
2013-03-02 04:18:00,43.9,42.0,30.19,SSW,207,0.0,-999.0,92,-99.99,,,0.00,weatherlink.com 1.10,2013-03-02 12:18:00,
2013-03-02 04:33:00,44.0,42.0,30.19,SSW,207,0.0,-999.0,92,-99.99,,,0.00,weatherlink.com 1.10,2013-03-02 12:33:00,
2013-03-02 04:48:00,44.1,42.0,30.19,SSW,207,0.0,-999.0,92,-99.99,,,0.00,weatherlink.com 1.10,2013-03-02 12:48:00,
2013-03-02 05:03:00,44.1,42.0,30.19,SSW,207,0.0,-999.0,92,-99.99,,,0.00,weatherlink.com 1.10,2013-03-02 13:03:00,
2013-03-02 05:18:00,44.4,42.0,30.19,SSW,207,0.0,-999.0,92,-99.99,,,0.00,weatherlink.com 1.10,2013-03-02 13:18:00,
2013-03-02 05:33:00,44.2,42.0,30.19,SSW,207,0.0,-999.0,92,-99.99,,,0.00,weatherlink.com 1.10,2013-03-02 13:33:00,
2013-03-02 05:48:00,43.8,42.0,30.19,SSW,207,0.0,-999.0,92,-99.99,,,0.00,weatherlink.com 1.10,2013-03-02 13:48:00,
2013-03-02 06:03:00,43.4,41.0,30.19,SSW,207,0.0,-999.0,92,-99.99,,,0.00,weatherlink.com 1.10,2013-03-02 14:03:00,
2013-03-02 06:18:00,43.3,41.0,30.19,SSW,207,0.0,-999.0,92,-99.99,,,0.00,weatherlink.com 1.10,2013-03-02 14:18:00,
2013-03-02 06:33:00,43.0,41.0,30.19,SSW,207,0.0,-999.0,92,-99.99,,,0.00,weatherlink.com 1.10,2013-03-02 14:33:00,
2013-03-02 06:48:00,43.1,41.0,30.19,SSW,207,0.0,-999.0,92,-99.99,,,0.00,weatherlink.com 1.10,2013-03-02 14:48:00,
2013-03-02 07:03:00,43.3,41.0,30.19,SSW,207,0.0,-999.0,92,-99.99,,,0.00,weatherlink.com 1.10,2013-03-02 15:03:00,
2013-03-02 07:18:00,43.4,41.0,30.20,SSW,207,0.0,-999.0,92,-99.99,,,0.00,weatherlink.com 1.10,2013-03-02 15:18:00,
2013-03-02 07:33:00,43.9,42.0,30.20,SSW,207,0.0,-999.0,92,-99.99,,,0.00,weatherlink.com 1.10,2013-03-02 15:33:00,
2013-03-02 07:48:00,44.6,43.0,30.20,SSW,207,0.0,-999.0,93,-99.99,,,0.00,weatherlink.com 1.10,2013-03-02 15:48:00,
2013-03-02 08:03:00,45.7,44.0,30.20,SSW,207,0.0,-999.0,93,-99.99,,,0.00,weatherlink.com 1.10,2013-03-02 16:03:00,
2013-03-02 08:18:00,46.7,45.0,30.20,SSW,207,0.0,-999.0,93,-99.99,,,0.00,weatherlink.com 1.10,2013-03-02 16:18:00,
2013-03-02 08:33:00,47.6,45.0,30.19,SSW,207,0.0,-999.0,92,-99.99,,,0.00,weatherlink.com 1.10,2013-03-02 16:33:00,
2013-03-02 08:48:00,48.9,46.0,30.20,WSW,251,0.0,-999.0,91,-99.99,,,0.00,weatherlink.com 1.10,2013-03-02 16:48:00,
2013-03-02 09:03:00,50.7,48.0,30.19,NW,325,2.0,-999.0,89,-99.99,,,0.00,weatherlink.com 1.10,2013-03-02 17:03:00,
2013-03-02 09:18:00,52.1,49.0,30.19,NW,325,0.0,-999.0,88,-99.99,,,0.00,weatherlink.com 1.10,2013-03-02 17:18:00,
2013-03-02 09:33:00,53.6,49.0,30.20,NW,325,0.0,-999.0,85,-99.99,,,0.00,weatherlink.com 1.10,2013-03-02 17:33:00,
2013-03-02 09:48:00,55.3,50.0,30.19,NNE,23,2.0,-999.0,83,-99.99,,,0.00,weatherlink.com 1.10,2013-03-02 17:48:00,
2013-03-02 10:03:00,56.7,50.0,30.19,NNW,328,0.0,-999.0,79,-99.99,,,0.00,weatherlink.com 1.10,2013-03-02 18:03:00,
2013-03-02 10:18:00,57.9,51.0,30.19,East,88,0.0,-999.0,77,-99.99,,,0.00,weatherlink.com 1.10,2013-03-02 18:18:00,
2013-03-02 10:33:00,59.6,51.0,30.18,ENE,62,0.0,-999.0,73,-99.99,,,0.00,weatherlink.com 1.10,2013-03-02 18:33:00,
2013-03-02 10:48:00,60.6,52.0,30.17,ENE,57,0.0,-999.0,72,-99.99,,,0.00,weatherlink.com 1.10,2013-03-02 18:48:00,
2013-03-02 11:03:00,61.6,52.0,30.17,ESE,107,0.0,-999.0,70,-99.99,,,0.00,weatherlink.com 1.10,2013-03-02 19:03:00,
2013-03-02 11:18:00,62.7,52.0,30.16,SW,219,1.0,-999.0,69,-99.99,,,0.00,weatherlink.com 1.10,2013-03-02 19:18:00,
2013-03-02 11:34:00,63.1,52.0,30.16,WNW,286,0.0,-999.0,68,-99.99,,,0.00,weatherlink.com 1.10,2013-03-02 19:34:00,
2013-03-02 11:49:00,63.6,52.0,30.15,SSW,206,0.0,-999.0,66,-99.99,,,0.00,weatherlink.com 1.10,2013-03-02 19:49:00,
2013-03-02 12:04:00,64.0,51.0,30.15,SW,228,2.0,-999.0,64,-99.99,,,0.00,weatherlink.com 1.10,2013-03-02 20:04:00,
2013-03-02 12:19:00,64.8,52.0,30.14,SSW,208,1.0,-999.0,64,-99.99,,,0.00,weatherlink.com 1.10,2013-03-02 20:19:00,
2013-03-02 12:34:00,65.9,53.0,30.13,SW,221,2.0,-999.0,63,-99.99,,,0.00,weatherlink.com 1.10,2013-03-02 20:34:00,
2013-03-02 12:49:00,67.3,53.0,30.13,SSW,206,0.0,-999.0,60,-99.99,,,0.00,weatherlink.com 1.10,2013-03-02 20:49:00,
2013-03-02 13:04:00,67.7,53.0,30.11,SSE,166,0.0,-999.0,59,-99.99,,,0.00,weatherlink.com 1.10,2013-03-02 21:04:00,
2013-03-02 13:19:00,68.3,54.0,30.11,SSW,209,2.0,-999.0,60,-99.99,,,0.00,weatherlink.com 1.10,2013-03-02 21:19:00,
2013-03-02 13:34:00,68.6,53.0,30.11,SSE,158,0.0,-999.0,58,-99.99,,,0.00,weatherlink.com 1.10,2013-03-02 21:34:00,
2013-03-02 13:49:00,69.0,54.0,30.11,SSE,153,2.0,-999.0,59,-99.99,,,0.00,weatherlink.com 1.10,2013-03-02 21:49:00,
2013-03-02 14:04:00,68.7,52.0,30.10,SSW,196,2.0,-999.0,56,-99.99,,,0.00,weatherlink.com 1.10,2013-03-02 22:04:00,
2013-03-02 14:19:00,68.6,53.0,30.09,South,176,0.0,-999.0,57,-99.99,,,0.00,weatherlink.com 1.10,2013-03-02 22:19:00,
2013-03-02 14:34:00,67.9,54.0,30.09,SSW,212,5.0,-999.0,62,-99.99,,,0.00,weatherlink.com 1.10,2013-03-02 22:34:00,
2013-03-02 14:49:00,67.4,55.0,30.08,SW,219,3.0,-999.0,64,-99.99,,,0.00,weatherlink.com 1.10,2013-03-02 22:49:00,
2013-03-02 15:04:00,67.0,53.0,30.08,SSW,197,3.0,-999.0,62,-99.99,,,0.00,weatherlink.com 1.10,2013-03-02 23:04:00,
2013-03-02 15:19:00,66.5,53.0,30.08,SW,219,5.0,-999.0,62,-99.99,,,0.00,weatherlink.com 1.10,2013-03-02 23:19:00,
2013-03-02 15:34:00,65.9,54.0,30.08,SW,217,2.0,-999.0,65,-99.99,,,0.00,weatherlink.com 1.10,2013-03-02 23:34:00,
2013-03-02 15:49:00,65.6,54.0,30.08,SSW,205,1.0,-999.0,66,-99.99,,,0.00,weatherlink.com 1.10,2013-03-02 23:49:00,
2013-03-02 16:04:00,65.3,54.0,30.08,SSW,194,3.0,-999.0,66,-99.99,,,0.00,weatherlink.com 1.10,2013-03-03 00:04:00,
2013-03-02 16:19:00,64.8,53.0,30.08,WSW,252,4.0,-999.0,65,-99.99,,,0.00,weatherlink.com 1.10,2013-03-03 00:19:00,
2013-03-02 16:34:00,64.7,53.0,30.07,SSW,201,2.0,-999.0,67,-99.99,,,0.00,weatherlink.com 1.10,2013-03-03 00:34:00,
2013-03-02 16:49:00,63.9,53.0,30.06,SSW,209,2.0,-999.0,68,-99.99,,,0.00,weatherlink.com 1.10,2013-03-03 00:49:00,
2013-03-02 17:04:00,63.3,53.0,30.05,WSW,250,0.0,-999.0,69,-99.99,,,0.00,weatherlink.com 1.10,2013-03-03 01:04:00,
2013-03-02 17:19:00,62.5,53.0,30.07,SSE,165,0.0,-999.0,71,-99.99,,,0.00,weatherlink.com 1.10,2013-03-03 01:19:00,
2013-03-02 17:34:00,61.6,52.0,30.08,South,180,1.0,-999.0,72,-99.99,,,0.00,weatherlink.com 1.10,2013-03-03 01:34:00,
2013-03-02 17:49:00,60.8,52.0,30.07,SSE,150,0.0,-999.0,72,-99.99,,,0.00,weatherlink.com 1.10,2013-03-03 01:49:00,
2013-03-02 18:04:00,59.7,51.0,30.07,SE,134,0.0,-999.0,74,-99.99,,,0.00,weatherlink.com 1.10,2013-03-03 02:04:00,
2013-03-02 18:19:00,58.3,51.0,30.08,South,186,0.0,-999.0,76,-99.99,,,0.00,weatherlink.com 1.10,2013-03-03 02:19:00,
2013-03-02 18:34:00,56.9,50.0,30.07,SE,144,2.0,-999.0,77,-99.99,,,0.00,weatherlink.com 1.10,2013-03-03 02:34:00,
2013-03-02 18:49:00,55.9,49.0,30.07,ESE,121,0.0,-999.0,78,-99.99,,,0.00,weatherlink.com 1.10,2013-03-03 02:49:00,
2013-03-02 19:04:00,55.5,49.0,30.07,South,190,0.0,-999.0,79,-99.99,,,0.00,weatherlink.com 1.10,2013-03-03 03:04:00,
2013-03-02 19:19:00,55.2,49.0,30.07,South,174,2.0,-999.0,80,-99.99,,,0.00,weatherlink.com 1.10,2013-03-03 03:19:00,
2013-03-02 19:35:00,55.0,49.0,30.08,SSE,162,3.0,-999.0,80,-99.99,,,0.00,weatherlink.com 1.10,2013-03-03 03:35:00,
2013-03-02 19:50:00,54.7,49.0,30.08,SSE,155,0.0,-999.0,80,-99.99,,,0.00,weatherlink.com 1.10,2013-03-03 03:50:00,
2013-03-02 20:05:00,54.5,49.0,30.07,SW,222,0.0,-999.0,81,-99.99,,,0.00,weatherlink.com 1.10,2013-03-03 04:05:00,
2013-03-02 20:20:00,54.2,49.0,30.08,ESE,108,0.0,-999.0,81,-99.99,,,0.00,weatherlink.com 1.10,2013-03-03 04:20:00,
2013-03-02 20:35:00,53.9,49.0,30.08,SSE,149,4.0,-999.0,82,-99.99,,,0.00,weatherlink.com 1.10,2013-03-03 04:35:00,
2013-03-02 20:50:00,53.3,48.0,30.08,SE,143,0.0,-999.0,83,-99.99,,,0.00,weatherlink.com 1.10,2013-03-03 04:50:00,
2013-03-02 21:05:00,53.0,48.0,30.09,South,185,0.0,-999.0,84,-99.99,,,0.00,weatherlink.com 1.10,2013-03-03 05:05:00,
2013-03-02 21:20:00,52.8,48.0,30.09,South,174,0.0,-999.0,84,-99.99,,,0.00,weatherlink.com 1.10,2013-03-03 05:20:00,
2013-03-02 21:35:00,52.7,48.0,30.09,ENE,74,0.0,-999.0,84,-99.99,,,0.00,weatherlink.com 1.10,2013-03-03 05:35:00,
2013-03-02 21:50:00,52.5,48.0,30.09,ENE,72,0.0,-999.0,85,-99.99,,,0.00,weatherlink.com 1.10,2013-03-03 05:50:00,
2013-03-02 22:05:00,52.4,48.0,30.09,SE,139,0.0,-999.0,86,-99.99,,,0.00,weatherlink.com 1.10,2013-03-03 06:05:00,
2013-03-02 22:20:00,52.1,48.0,30.09,SE,128,0.0,-999.0,86,-99.99,,,0.00,weatherlink.com 1.10,2013-03-03 06:20:00,
2013-03-02 22:35:00,51.8,48.0,30.08,SSE,158,0.0,-999.0,86,-99.99,,,0.00,weatherlink.com 1.10,2013-03-03 06:35:00,
2013-03-02 22:50:00,51.5,48.0,30.09,SSE,158,0.0,-999.0,87,-99.99,,,0.00,weatherlink.com 1.10,2013-03-03 06:50:00,
2013-03-02 23:05:00,51.4,48.0,30.09,SSW,198,0.0,-999.0,87,-99.99,,,0.00,weatherlink.com 1.10,2013-03-03 07:05:00,
2013-03-02 23:20:00,51.3,48.0,30.07,NNW,340,0.0,-999.0,88,-99.99,,,0.00,weatherlink.com 1.10,2013-03-03 07:20:00,
2013-03-02 23:35:00,51.3,48.0,30.07,SSE,155,0.0,-999.0,88,-99.99,,,0.00,weatherlink.com 1.10,2013-03-03 07:35:00,
2013-03-02 23:50:00,51.0,48.0,30.07,South,171,0.0,-999.0,88,-99.99,,,0.00,weatherlink.com 1.10,2013-03-03 07:50:00,